Back to catalog

STARLINK-5090

AliveCommunicationsVLEO
NORAD 56137·PAYLOAD·🇺🇸 United States

Launched Mar 29, 2023 from Cape Canaveral Space Force Station

Loading…

Next Passes (next 24 hours)

TLE

FreshSource: CelesTrak SupGP

Epoch: Sep 14, 2026, 21:38 UTC

1 56137C 23046AW  26257.90187500 -.00042248  00000+0 -15304-2 0  2572
2 56137  43.0003 158.3382 0001374 267.6961 270.1134 15.27595245    10

Track STARLINK-5090 in real time with AllMySat

Download on the App Store